THORAD DELTA 1 R/B, 7532

Orbit data source: Space-Track

THORAD DELTA 1 R/B, 7532 is space debris in SSO originally from a launch on Fri, 15 Nov 1974 UTC launched from the Air Force Western Test Range (AFWTR). Debris objects in space refer to the collection of defunct objects orbiting the Earth. Examples of debris include non-operational satellites, rocket bodies, and fragments generated from explosions, collisions, or faulty payload assembly.

Loading next visibility...
Identifier
7532, 1974-089D
Orbit
SSO
Country
Flag of USUS
Related business
Manufacturer
MDAC-HB
Mission
Spacecraft
Bus & Motor
DELTA/TR-201, Unknown motor
Mass
845 kg wet, 845 kg dry
Launch date (UTC)
1974-11-15 (52 years ago)
Launch vehicle
Unknown
Launch site
Air Force Western Test Range (AFWTR)
Object type
Payload
Rocket body
Debris
Shape & HBR
Unknown
Radar Cross Section
Medium (>0.1 m² and <1 m²)

Expand to show TLE details & history
Last TLE update: 6 hours ago

TLE from 6 hours ago
0 THORAD DELTA 1 R/B
1  7532U 74089D   26166.13327464 -.00000041  00000-0  14253-4 0  9991
2  7532 101.6954 128.7650 0066404 197.4717 173.5485 12.39927323334778
Epoch: 2026-06-15T03:11Z
TLE epoch observation values (Epoch: 2026-06-15T03:11:54.928Z)
Latitude
10.82816°
Longitude
175.10394°
Altitude
1,560.767 km
Speed
7.064 km/s
True Right ascension
08h 26m 01s
True Declination
10° 46' 17"
Sunlit
Object was in daylight at epoch
Visualization orbit readout
Latitude
Unknown
Longitude
Unknown
Altitude
Unknown
Speed
Unknown
Apparent Right ascension
Unknown
Apparent Declination
Unknown
Sunlit
N/A
Visualization observer readout
Local Sidereal Time
19:27:22
Azimuth
Unknown
Elevation
Unknown
Doppler factor
Unknown
Orbital elements
Apogee altitude
1,556.812 km
Perigee altitude
1,452.124 km
Semi-major axis
7,882.605 km
Eccentricity
0.00664
Inclination
101.6954°
RAAN
128.765°
Arg. of periapsis
197.4717°
True anomaly
173.6333°
Mean anomaly
173.5485°
Eccentric anomaly
173.59097°
Mean motion
3.10126 °/min
Orbital period
116.08 mins
BSTAR
0.000014253
Loading maneuver chart data...
Computing Atmospheric mass density...
Loading historical data...
Loading historical data...
Loading historical data...
Loading historical data...
Loading historical data...
Loading historical data...
Loading historical data...

Documentation

Showing up to 5 results
|